Résultats de la compétition "CHAMPIONNAT D'ALSACE SPRINT" du 17-02-2007 organisée par le comité départemental du 67 - Bas-Rhin
     
  Télécharger le fichier CSV.  
     
     

 Circuit "Circuit Homme"

Licence Nom Prénom Temps CN
précédent
Score sur
la course
Différence
1911MEYERKirian0:15:10N/A5288N/A
10442KERVARECJohann0:15:31N/A5169N/A
4445POIRSONThomas0:15:33N/A5157N/A
13040VILLARChristophe0:15:39N/A5125N/A
16292MARQUEFrederic0:16:08N/A4971N/A
10329ARNOULDVincent0:16:19N/A4915N/A
12807STRICHFrancois0:16:36N/A4831N/A
1518MULLERMarc0:16:39N/A4817N/A
1335BEAUDEUXPhilippe0:16:54N/A4745N/A
12759SCHAMBERGERPierre0:17:04N/A4699N/A
12894DEVIERPatrice0:17:08N/A4681N/A
341FREYVincent0:17:11N/A4667N/A
2796LEGALLAISJ-Luc0:17:39N/A4544N/A
302BAGUEREYBaptiste0:17:40N/A4540N/A
14657ARNOULDLouis0:18:02N/A4447N/A
11430BERNAUERChristophe0:18:02N/A4447N/A
16293PUMAGregory0:18:06N/A4431N/A
10259HAURYAndre0:18:10N/A4415N/A
2277HELSTROFFERSylvain0:18:17N/A4386N/A
17076HERLINGJerome0:18:22N/A4367N/A
366VESCOVOJ-Albert0:18:27N/A4347N/A
11513HAURYGilles0:18:33N/A4323N/A
10428PHILIPPEEudes0:18:34N/A4319N/A
7569PERRINGuillaume0:18:35N/A4316N/A
11875FRANCOISGerald0:18:49N/A4262N/A
7004PHILIPPERenaud0:19:31N/A4109N/A
15852CLEYET-MERLEChristophe0:20:16N/A3957N/A
346LAHAUSSEOlivier0:20:46N/A3862N/A
6745STREBLERThomas0:20:53N/A3840N/A
16739DURANDMathieu0:20:59N/A3822N/A
2369BRELLMANNHubert0:21:02N/A3813N/A
13331SEILLERFabien0:21:19N/A3762N/A
10812DRUZETICStephane0:21:25N/A3745N/A
11511BRELLMANNMichel0:21:42N/A3696N/A
12896BOTOJeremi0:21:47N/A3682N/A
2263LEMBLEAndre0:23:17N/A3444N/A
7573OUDINBernard0:23:29N/A3415N/A
5638TARDYVictor0:23:31N/A3410N/A
16260SCHNEBELENJulien0:23:35N/A3401N/A
17647STEINThomas0:23:41N/A3386N/A
18467GOETTMANNPierre-Aimé0:23:42N/A3384N/A
4769STREBLERJ-Philippe0:24:08N/A3323N/A
314VESCOVOJ-Charles0:25:16N/A3174N/A
14264CHABAUDIEPhilippe0:25:27N/A3151N/A
17640COLLETNicolas0:26:05N/A3075N/A
13636KORCHAKTom0:28:37N/A2803N/A
13710WISSONBernard0:28:56N/A2772N/A
13693HAURYMarc0:29:09N/A2751N/A
12146WISSONFlorent0:30:17N/A2648N/A
6819HOUDAYERPhilippe0:30:40N/A2615N/A
1201CANOGuy0:33:52N/A2368N/A
2555RIAULTBernard0:37:21N/A2147N/A
10906COLINFranckN/AN/A0N/A
14223FISCHERGuyN/AN/A0N/A
7318PILISIRemyN/AN/A0N/A
11615ANDRESAugustinN/AN/A0N/A
13178HOLLNicolasN/AN/A0N/A
2438MASSONFabienN/AN/A0N/A
15858CASASSASAntoineN/AN/A0N/A
17616RENAUDINJean-charlesN/AN/A0N/A
5640HUEBERFrancoisN/AN/A0N/A

  Indice de confiance du circuit (moyenne des différences entre CN et score sur la course des 3 à 10 premiers) : 166




 Circuit "Circuit Dames"

Licence Nom Prénom Temps CN
précédent
Score sur
la course
Différence
14216VILLARIsabelle0:14:26N/A4054N/A
6753HUEBERNicole0:14:40N/A3989N/A
5639HUEBERDiane0:14:54N/A3927N/A
4203MEYEROriane0:15:25N/A3795N/A
13637KORCHAKLena0:16:33N/A3535N/A
12145WISSONEmilie0:16:37N/A3521N/A
13142LOEWAngelique0:16:57N/A3452N/A
12078CASTERANMarie0:17:20N/A3375N/A
1202VOISINStephanie0:17:25N/A3359N/A
15332MEYERPatricia0:17:56N/A3263N/A
13478KORCHAKNicole0:18:02N/A3244N/A
11510BRELLMANNEvelyne0:18:56N/A3090N/A
2361THIERYAnnick0:19:34N/A2990N/A
4073TARDYNatacha0:19:51N/A2948N/A
13688FRANCOISAline0:21:20N/A2743N/A
2557VOGTChristiane0:22:20N/A2620N/A
13692HAURYEvelyne0:23:32N/A2486N/A
2393ZIMMERMANNM-Laurenc0:23:33N/A2484N/A
17779BREGEAUDJennifer0:25:02N/A2337N/A
7574OUDINM-Reine0:27:39N/A2116N/A
1909MEYERCorinne0:28:05N/A2083N/A
18285GAERTNERCéline0:40:25N/A1448N/A
15857CASASSASAnnick0:42:00N/A1393N/A
5306LEMBLEFrederiqueN/AN/A0N/A

  Indice de confiance du circuit (moyenne des différences entre CN et score sur la course des 3 à 10 premiers) : 201




 Circuit "Circuit D/H 10-12"

Licence Nom Prénom Temps CN
précédent
Score sur
la course
Différence
18468GOETTMANNThomas0:11:39N/A2762N/A
18304BEAUDEUXThéo0:14:43N/A2186N/A
17074FRANCOISLysa0:18:10N/A1771N/A
17778KOPFFClement0:19:48N/A1625N/A
16921CANOEloise0:19:52N/A1620N/A
13638KORCHAKNathalie0:20:11N/A1594N/A
13639KORCHAKEmilieN/AN/A0N/A

  Indice de confiance du circuit (moyenne des différences entre CN et score sur la course des 3 à 10 premiers) : 625




 Circuit "Jalonné"

Licence Nom Prénom Temps CN
précédent
Score sur
la course
Différence
14215VILLARZoeN/AN/A0N/A

  Circuit non comptabilisé (moins de 3 coureurs classés).






 Retour